TITAN 3C TRANSTAGE DEB, 1961

Orbit data source: Space-Track

TITAN 3C TRANSTAGE DEB, 1961 is space debris in LEO originally from a launch on Fri, 15 Oct 1965 UTC launched from the Air Force Eastern Test Range (AFETR). Debris objects in space refer to the collection of defunct objects orbiting the Earth. Examples of debris include non-operational satellites, rocket bodies, and fragments generated from explosions, collisions, or faulty payload assembly.

Loading next visibility...
TITAN 3C TRANSTAGE DEB details
Identifier
1961, 1965-082GW
Orbit
LEO
Last TLE update19 hours ago
Origin
Flag of USUSAF SSD (US)
ManufacturerUnknown
MissionSpacecraft
Bus & MotorUnknown
MassUnknown
Launch date (UTC)
1965-10-15 (59 years ago)
Launch vehicleUnknown
Launch site
Air Force Eastern Test Range (AFETR)
Object type
Payload
Rocket body
Debris
Shape & HBRUnknown
Radar Cross SectionSmall (<0.1 m²)

Expand to show TLE details & history

TLE from 19 hours ago
0 TITAN 3C TRANSTAGE DEB
1 01961U 65082GW  25024.15208761  .00013438  00000-0  86181-3 0  9997
2 01961  31.8601 312.0092 0004781 268.9631  91.0474 15.07406702167045
Epoch: 2025-01-24T03:39Z
Definitive object data (Epoch: 2025-01-24T03:39:00.369Z)
Latitude-0.00004°
Longitude133.53824°
Altitude542.786 km
Speed7.593 km/s
True Right ascension20h 48m 02s
True Declination0° 00' 00"
Sunlit
Object was in daylight at TLE epoch
Visualization TLE readout
Latitude-30.38589°
Longitude58.791°
Altitude547.811 km
Speed7.591 km/s
Apparent Right ascension13h 58m 55s
Apparent Declination-38° 57' 00"
Sunlit
Object is in daylight
Visualization observer readout
Local Sidereal Time23:41:31
Azimuth260.916° W
Elevation-63.618°
Doppler factor1
Orbital elements
Apogee altitude551.148 km
Perigee altitude544.526 km
Semi-major axis6,925.974 km
Eccentricity0.0004781
Inclination31.8601°
RAAN312.0092°
Arg. of periapsis268.9631°
True anomaly91.10218°
Mean anomaly91.0474°
Eccentric anomaly91.07479°
Mean motion3.76549 °/min
BSTAR0.00086181
Orbital period95.6 mins
Loading maneuver chart data...

TITAN 3C TRANSTAGE DEB Visibility forecast

Observer location: undefined°, undefined

Span
Click to sort rows by Start time (UTC) header in descending order
Start Az.
Max El. time (UTC)
Max El. Az.
Max El.
End time (UTC)
End Az.
4 mins2025-01-24 22:59:02.573Z187.936° SSW2025-01-24 23:01:02.573Z154.501° SSE15.233°2025-01-24 23:03:02.573Z125.235° SE
5 mins2025-01-25 00:39:02.573Z218.351° SW2025-01-25 00:41:02.573Z177.725° S23.522°2025-01-25 00:44:02.573Z123.977° SE
4 mins2025-01-25 02:20:02.573Z222.864° SW2025-01-25 02:22:02.573Z182.568° SSW20.457°2025-01-25 02:24:02.573Z148.115° SSE
|